This is the latest recevied weather packets stored in our database for station/object AB8Y-13. If no packets are shown the sender has not sent any weather packets the latest 10 day(s).
| Time | Temp. | Humidity | Pressure | Rain* | Wind** | Luminosity | Snow |
|---|---|---|---|---|---|---|---|
| 1777469242 | 7.78° C | 85% | 1014 hPa | 0 mm | - | 206 W/m² | - |
| 1777468937 | 7.78° C | 85% | 1014 hPa | 0 mm | - | 227 W/m² | - |
| 1777468633 | 7.78° C | 89% | 1014.1 hPa | 0 mm | - | 213 W/m² | - |
| 1777468330 | 7.78° C | 89% | 1014.3 hPa | 0 mm | - | 257 W/m² | - |
| 1777468026 | 7.22° C | 90% | 1014.1 hPa | 0 mm | - | 211 W/m² | - |
| 1777467722 | 7.22° C | 91% | 1014 hPa | 0 mm | - | 104 W/m² | - |
| 1777467418 | 7.22° C | 91% | 1014.4 hPa | 0 mm | - | 80 W/m² | - |
| 1777467113 | 7.22° C | 91% | 1014.3 hPa | 0 mm | - | 87 W/m² | - |
| 1777466811 | 7.78° C | 91% | 1014.6 hPa | 0 mm | - | 116 W/m² | - |
| 1777466509 | 7.78° C | 91% | 1014.5 hPa | 0 mm | - | 122 W/m² | - |
| 1777466205 | 7.22° C | 92% | 1014.5 hPa | 0 mm | - | 131 W/m² | - |
| 1777465901 | 7.22° C | 91% | 1014.6 hPa | 0 mm | - | 95 W/m² | - |
| 1777465597 | 7.22° C | 91% | 1014.5 hPa | 0 mm | - | 69 W/m² | - |
| 1777465293 | 7.22° C | 91% | 1014.7 hPa | 0 mm | - | 57 W/m² | - |
| 1777464987 | 7.22° C | 92% | 1014.7 hPa | 0 mm | - | 49 W/m² | - |
| 1777464682 | 7.22° C | 92% | 1014.6 hPa | 1.27 mm | - | 40 W/m² | - |
| 1777464379 | 7.22° C | 93% | 1014.7 hPa | 1.27 mm | - | 36 W/m² | - |
| 1777464075 | 7.22° C | 93% | 1014.6 hPa | 0 mm | - | 25 W/m² | - |
| 1777463774 | 7.22° C | 93% | 1014.7 hPa | 0 mm | - | 28 W/m² | - |
| 1777463470 | 7.22° C | 92% | 1014.7 hPa | 0 mm | - | 26 W/m² | - |
| 1777463165 | 7.22° C | 92% | 1014.7 hPa | 1.78 mm | - | 26 W/m² | - |
| 1777462862 | 7.78° C | 91% | 1014.7 hPa | 1.78 mm | - | 28 W/m² | - |
| 1777462557 | 7.78° C | 90% | 1014.6 hPa | 1.27 mm | - | 19 W/m² | - |
| 1777462254 | 7.78° C | 89% | 1014.6 hPa | 1.27 mm | - | 17 W/m² | - |
| 1777461950 | 7.78° C | 89% | 1014.3 hPa | 3.05 mm | - | 11 W/m² | - |
* Rain latest hour (hover to see other rain measurements)
** Current wind speed in m/s (hover to see current wind gust speed)